Information on these data can be found in provided Readme document
Contact Info: Zachary Fasnacht (zachary.fasnacht@ssaihq.com); Nickolay Krotkov (nickolay.a.krotkov@nasa.gov); Lok Lamsal (lok.lamsal@nasa.gov)

FillValue: -999.
ScaleFactor: 1e15
Units: molecules/cm^2

Date(yyyy-mm-dd),City,Country,LonCenter,LatCenter,BoundingCoordinates,Median,Q1,Q3,Mean,Baseline_Median,Baseline_Q1,Baseline_Q3,Baseline_Mean,NumGoodSamples,NumTotalSamples
2015-01-01,Quanzhou,China,118.5833,24.9167,[118.0833 24.4167 119.0833 25.4167],6.62,4.881,8.876,7.747,5.826,4.277,8.488,6.912,123.0,552.0
2015-01-02,Quanzhou,China,118.5833,24.9167,[118.0833 24.4167 119.0833 25.4167],6.696,4.961,9.07,7.964,5.738,4.267,8.094,6.922,144.0,537.0
2015-01-03,Quanzhou,China,118.5833,24.9167,[118.0833 24.4167 119.0833 25.4167],6.696,4.961,9.07,7.964,5.745,4.288,7.917,6.754,144.0,550.0
2015-01-04,Quanzhou,China,118.5833,24.9167,[118.0833 24.4167 119.0833 25.4167],6.696,4.961,9.07,7.964,5.917,4.432,8.085,6.967,144.0,534.0
2015-01-05,Quanzhou,China,118.5833,24.9167,[118.0833 24.4167 119.0833 25.4167],6.696,4.961,9.07,7.964,6.062,4.454,8.248,6.964,144.0,552.0
2015-01-06,Quanzhou,China,118.5833,24.9167,[118.0833 24.4167 119.0833 25.4167],6.997,5.08,8.876,8.187,6.132,4.52,8.208,7.045,112.0,542.0
2015-01-07,Quanzhou,China,118.5833,24.9167,[118.0833 24.4167 119.0833 25.4167],6.62,4.881,8.581,7.755,6.045,4.469,8.106,6.965,144.0,553.0
2015-01-08,Quanzhou,China,118.5833,24.9167,[118.0833 24.4167 119.0833 25.4167],6.641,4.779,8.581,7.527,6.227,4.436,8.478,7.084,121.0,553.0
2015-01-09,Quanzhou,China,118.5833,24.9167,[118.0833 24.4167 119.0833 25.4167],6.62,4.568,8.645,7.529,6.153,4.231,8.435,7.034,144.0,545.0
2015-01-10,Quanzhou,China,118.5833,24.9167,[118.0833 24.4167 119.0833 25.4167],6.352,4.504,9.07,7.513,6.17,4.334,8.892,7.134,124.0,518.0
2015-01-11,Quanzhou,China,118.5833,24.9167,[118.0833 24.4167 119.0833 25.4167],6.472,4.779,8.645,7.448,6.17,4.364,8.806,7.163,143.0,494.0
2015-01-12,Quanzhou,China,118.5833,24.9167,[118.0833 24.4167 119.0833 25.4167],7.365,4.942,10.617,8.324,6.401,4.333,9.48,7.41,112.0,507.0
2015-01-13,Quanzhou,China,118.5833,24.9167,[118.0833 24.4167 119.0833 25.4167],6.087,3.81,8.477,7.144,5.889,3.942,8.511,6.799,136.0,495.0
2015-01-14,Quanzhou,China,118.5833,24.9167,[118.0833 24.4167 119.0833 25.4167],5.875,3.611,7.696,6.515,5.963,3.866,8.332,6.554,137.0,521.0
2015-01-15,Quanzhou,China,118.5833,24.9167,[118.0833 24.4167 119.0833 25.4167],5.875,3.767,7.631,6.627,6.213,4.187,8.668,6.861,155.0,507.0
2015-01-16,Quanzhou,China,118.5833,24.9167,[118.0833 24.4167 119.0833 25.4167],5.875,3.611,7.931,6.632,6.141,4.046,8.458,6.715,182.0,504.0
2015-01-17,Quanzhou,China,118.5833,24.9167,[118.0833 24.4167 119.0833 25.4167],5.649,3.49,7.394,6.278,6.037,3.938,8.31,6.579,161.0,509.0
2015-01-18,Quanzhou,China,118.5833,24.9167,[118.0833 24.4167 119.0833 25.4167],5.649,3.49,7.394,6.278,5.723,3.882,7.893,6.27,161.0,492.0
2015-01-19,Quanzhou,China,118.5833,24.9167,[118.0833 24.4167 119.0833 25.4167],5.649,3.49,7.394,6.278,5.705,3.831,7.859,6.222,161.0,504.0
2015-01-20,Quanzhou,China,118.5833,24.9167,[118.0833 24.4167 119.0833 25.4167],5.649,3.49,7.394,6.278,5.452,3.497,7.444,5.977,161.0,485.0
2015-01-21,Quanzhou,China,118.5833,24.9167,[118.0833 24.4167 119.0833 25.4167],5.649,3.49,7.394,6.278,5.218,3.427,7.381,5.863,161.0,503.0
2015-01-22,Quanzhou,China,118.5833,24.9167,[118.0833 24.4167 119.0833 25.4167],5.661,3.454,7.593,6.339,5.153,3.387,7.325,5.803,143.0,494.0
2015-01-23,Quanzhou,China,118.5833,24.9167,[118.0833 24.4167 119.0833 25.4167],5.661,3.454,7.593,6.339,5.125,3.384,7.268,5.747,143.0,504.0
2015-01-24,Quanzhou,China,118.5833,24.9167,[118.0833 24.4167 119.0833 25.4167],5.745,3.41,7.593,6.177,5.185,3.397,7.165,5.678,120.0,504.0
2015-01-25,Quanzhou,China,118.5833,24.9167,[118.0833 24.4167 119.0833 25.4167],5.745,3.41,7.593,6.177,4.938,3.265,6.999,5.467,120.0,534.0
2015-01-26,Quanzhou,China,118.5833,24.9167,[118.0833 24.4167 119.0833 25.4167],5.266,3.145,7.274,5.996,4.804,3.188,6.894,5.407,101.0,544.0
2015-01-27,Quanzhou,China,118.5833,24.9167,[118.0833 24.4167 119.0833 25.4167],5.322,3.229,7.274,5.978,4.776,3.143,6.901,5.39,103.0,520.0
2015-01-28,Quanzhou,China,118.5833,24.9167,[118.0833 24.4167 119.0833 25.4167],5.661,3.132,9.291,6.769,4.66,3.041,7.081,5.295,79.0,536.0
2015-01-29,Quanzhou,China,118.5833,24.9167,[118.0833 24.4167 119.0833 25.4167],5.572,3.109,8.127,6.263,4.609,3.006,6.706,5.12,61.0,524.0
2015-01-30,Quanzhou,China,118.5833,24.9167,[118.0833 24.4167 119.0833 25.4167],5.322,2.607,9.291,5.868,4.312,2.804,6.305,4.679,60.0,551.0
2015-01-31,Quanzhou,China,118.5833,24.9167,[118.0833 24.4167 119.0833 25.4167],5.322,2.658,8.547,5.426,4.13,2.861,5.818,4.493,33.0,537.0
2015-02-01,Quanzhou,China,118.5833,24.9167,[118.0833 24.4167 119.0833 25.4167],4.445,2.542,5.984,5.005,4.018,2.813,5.232,4.214,41.0,536.0
2015-02-02,Quanzhou,China,118.5833,24.9167,[118.0833 24.4167 119.0833 25.4167],4.445,2.542,5.984,5.005,4.139,2.89,5.302,4.158,41.0,542.0
2015-02-03,Quanzhou,China,118.5833,24.9167,[118.0833 24.4167 119.0833 25.4167],5.322,2.658,7.029,5.381,4.287,2.9,5.564,4.278,54.0,526.0
2015-02-04,Quanzhou,China,118.5833,24.9167,[118.0833 24.4167 119.0833 25.4167],5.322,2.658,7.029,5.381,4.146,2.904,5.633,4.296,54.0,539.0
2015-02-05,Quanzhou,China,118.5833,24.9167,[118.0833 24.4167 119.0833 25.4167],5.322,2.071,7.929,5.082,4.325,2.807,5.873,4.318,69.0,522.0
2015-02-06,Quanzhou,China,118.5833,24.9167,[118.0833 24.4167 119.0833 25.4167],5.742,1.48,7.929,5.157,4.253,2.834,5.361,4.326,55.0,539.0
2015-02-07,Quanzhou,China,118.5833,24.9167,[118.0833 24.4167 119.0833 25.4167],5.397,2.897,7.203,4.955,4.278,2.947,5.388,4.326,76.0,530.0
2015-02-08,Quanzhou,China,118.5833,24.9167,[118.0833 24.4167 119.0833 25.4167],5.397,2.897,7.203,4.955,4.362,3.021,5.481,4.398,76.0,541.0
2015-02-09,Quanzhou,China,118.5833,24.9167,[118.0833 24.4167 119.0833 25.4167],5.397,2.897,7.203,4.955,4.458,3.102,5.547,4.47,76.0,541.0
2015-02-10,Quanzhou,China,118.5833,24.9167,[118.0833 24.4167 119.0833 25.4167],5.322,2.973,6.359,4.893,4.713,3.382,5.908,4.792,88.0,534.0
2015-02-11,Quanzhou,China,118.5833,24.9167,[118.0833 24.4167 119.0833 25.4167],5.181,2.897,7.029,4.853,4.688,3.439,5.927,4.773,86.0,508.0
2015-02-12,Quanzhou,China,118.5833,24.9167,[118.0833 24.4167 119.0833 25.4167],5.119,2.897,6.787,4.808,4.664,3.384,5.951,4.793,95.0,485.0
2015-02-13,Quanzhou,China,118.5833,24.9167,[118.0833 24.4167 119.0833 25.4167],5.119,2.897,6.787,4.808,4.663,3.378,5.955,4.806,95.0,500.0
2015-02-14,Quanzhou,China,118.5833,24.9167,[118.0833 24.4167 119.0833 25.4167],4.673,2.86,6.772,4.652,4.567,3.299,5.98,4.653,78.0,491.0
2015-02-15,Quanzhou,China,118.5833,24.9167,[118.0833 24.4167 119.0833 25.4167],4.911,2.897,6.772,4.689,4.641,3.327,6.154,4.746,84.0,518.0
2015-02-16,Quanzhou,China,118.5833,24.9167,[118.0833 24.4167 119.0833 25.4167],5.181,2.897,6.787,4.818,4.825,3.356,6.372,4.902,76.0,504.0
2015-02-17,Quanzhou,China,118.5833,24.9167,[118.0833 24.4167 119.0833 25.4167],5.181,2.897,6.787,4.814,4.854,3.383,6.423,4.918,87.0,503.0
2015-02-18,Quanzhou,China,118.5833,24.9167,[118.0833 24.4167 119.0833 25.4167],4.636,2.577,6.772,4.593,4.705,3.315,6.495,4.858,74.0,507.0
2015-02-19,Quanzhou,China,118.5833,24.9167,[118.0833 24.4167 119.0833 25.4167],4.636,2.805,6.772,4.625,4.668,3.493,6.396,4.884,79.0,493.0
2015-02-20,Quanzhou,China,118.5833,24.9167,[118.0833 24.4167 119.0833 25.4167],4.636,3.103,6.169,4.638,4.91,3.727,6.448,5.07,64.0,507.0
2015-02-21,Quanzhou,China,118.5833,24.9167,[118.0833 24.4167 119.0833 25.4167],4.103,2.897,5.895,4.386,4.885,3.651,6.657,5.171,69.0,491.0
2015-02-22,Quanzhou,China,118.5833,24.9167,[118.0833 24.4167 119.0833 25.4167],4.093,2.335,6.332,4.309,4.767,3.367,6.56,5.121,48.0,509.0
2015-02-23,Quanzhou,China,118.5833,24.9167,[118.0833 24.4167 119.0833 25.4167],4.093,2.335,6.332,4.309,4.804,3.368,6.76,5.133,48.0,500.0
2015-02-24,Quanzhou,China,118.5833,24.9167,[118.0833 24.4167 119.0833 25.4167],4.103,2.577,6.503,4.448,4.697,3.455,6.611,5.107,53.0,512.0
2015-02-25,Quanzhou,China,118.5833,24.9167,[118.0833 24.4167 119.0833 25.4167],4.121,2.187,6.772,4.47,4.388,3.172,5.779,4.712,41.0,513.0
2015-02-26,Quanzhou,China,118.5833,24.9167,[118.0833 24.4167 119.0833 25.4167],4.121,2.187,6.772,4.47,4.404,3.182,5.843,4.748,41.0,544.0
2015-02-27,Quanzhou,China,118.5833,24.9167,[118.0833 24.4167 119.0833 25.4167],3.288,2.177,6.503,4.407,4.497,3.294,6.06,4.931,32.0,556.0
2015-02-28,Quanzhou,China,118.5833,24.9167,[118.0833 24.4167 119.0833 25.4167],3.288,2.177,6.503,4.407,4.478,3.279,5.926,4.913,32.0,534.0
2015-03-01,Quanzhou,China,118.5833,24.9167,[118.0833 24.4167 119.0833 25.4167],3.288,2.177,6.503,4.407,4.536,3.321,6.103,4.97,32.0,546.0
2015-03-02,Quanzhou,China,118.5833,24.9167,[118.0833 24.4167 119.0833 25.4167],3.289,2.556,4.35,3.606,4.376,3.241,5.774,4.757,56.0,533.0
2015-03-03,Quanzhou,China,118.5833,24.9167,[118.0833 24.4167 119.0833 25.4167],3.289,2.556,4.35,3.606,4.341,3.278,5.711,4.755,56.0,559.0
2015-03-04,Quanzhou,China,118.5833,24.9167,[118.0833 24.4167 119.0833 25.4167],3.289,2.556,4.35,3.508,4.506,3.476,5.836,4.852,45.0,544.0
2015-03-05,Quanzhou,China,118.5833,24.9167,[118.0833 24.4167 119.0833 25.4167],3.289,2.556,4.35,3.508,4.506,3.476,5.836,4.852,45.0,545.0
2015-03-06,Quanzhou,China,118.5833,24.9167,[118.0833 24.4167 119.0833 25.4167],3.234,2.556,4.35,3.429,4.577,3.363,6.274,5.053,40.0,550.0
2015-03-07,Quanzhou,China,118.5833,24.9167,[118.0833 24.4167 119.0833 25.4167],3.535,2.802,6.306,4.715,4.577,3.385,6.488,5.18,61.0,534.0
2015-03-08,Quanzhou,China,118.5833,24.9167,[118.0833 24.4167 119.0833 25.4167],3.834,3.052,6.462,4.944,4.64,3.445,6.532,5.235,56.0,547.0
2015-03-09,Quanzhou,China,118.5833,24.9167,[118.0833 24.4167 119.0833 25.4167],3.834,3.052,6.462,4.944,4.947,3.762,6.688,5.404,56.0,530.0
2015-03-10,Quanzhou,China,118.5833,24.9167,[118.0833 24.4167 119.0833 25.4167],3.834,3.052,6.462,4.944,4.867,3.685,6.645,5.373,56.0,548.0
2015-03-11,Quanzhou,China,118.5833,24.9167,[118.0833 24.4167 119.0833 25.4167],3.533,2.802,4.917,4.438,4.995,3.685,6.735,5.634,75.0,537.0
2015-03-12,Quanzhou,China,118.5833,24.9167,[118.0833 24.4167 119.0833 25.4167],3.539,2.802,5.794,5.039,5.058,3.694,7.105,5.966,107.0,548.0
2015-03-13,Quanzhou,China,118.5833,24.9167,[118.0833 24.4167 119.0833 25.4167],3.686,2.802,6.462,5.191,4.959,3.594,7.378,5.95,120.0,547.0
2015-03-14,Quanzhou,China,118.5833,24.9167,[118.0833 24.4167 119.0833 25.4167],3.686,2.802,6.462,5.195,4.924,3.624,7.253,5.885,121.0,537.0
2015-03-15,Quanzhou,China,118.5833,24.9167,[118.0833 24.4167 119.0833 25.4167],3.686,2.802,6.462,5.195,5.055,3.682,7.366,5.942,121.0,510.0
2015-03-16,Quanzhou,China,118.5833,24.9167,[118.0833 24.4167 119.0833 25.4167],3.686,2.802,6.462,5.195,4.992,3.607,7.365,5.908,121.0,486.0
2015-03-17,Quanzhou,China,118.5833,24.9167,[118.0833 24.4167 119.0833 25.4167],4.955,3.077,9.488,6.524,5.219,3.667,7.826,6.018,91.0,501.0
2015-03-18,Quanzhou,China,118.5833,24.9167,[118.0833 24.4167 119.0833 25.4167],4.955,3.077,9.488,6.524,5.293,3.783,8.106,6.141,91.0,491.0
2015-03-19,Quanzhou,China,118.5833,24.9167,[118.0833 24.4167 119.0833 25.4167],4.955,3.077,9.488,6.524,5.446,3.787,8.458,6.326,91.0,517.0
2015-03-20,Quanzhou,China,118.5833,24.9167,[118.0833 24.4167 119.0833 25.4167],5.439,3.371,9.631,6.848,5.501,3.768,8.335,6.353,107.0,502.0
2015-03-21,Quanzhou,China,118.5833,24.9167,[118.0833 24.4167 119.0833 25.4167],5.407,3.4,8.751,6.683,5.758,4.096,8.364,6.52,134.0,500.0
2015-03-22,Quanzhou,China,118.5833,24.9167,[118.0833 24.4167 119.0833 25.4167],4.925,3.34,7.985,6.175,5.635,3.951,8.076,6.317,141.0,509.0
2015-03-23,Quanzhou,China,118.5833,24.9167,[118.0833 24.4167 119.0833 25.4167],5.216,3.371,8.154,6.271,5.683,3.871,8.099,6.256,148.0,494.0
2015-03-24,Quanzhou,China,118.5833,24.9167,[118.0833 24.4167 119.0833 25.4167],5.216,3.371,8.154,6.271,5.629,3.938,8.033,6.226,148.0,508.0
2015-03-25,Quanzhou,China,118.5833,24.9167,[118.0833 24.4167 119.0833 25.4167],4.407,3.371,6.509,5.546,5.392,3.933,7.601,6.067,175.0,491.0
2015-03-26,Quanzhou,China,118.5833,24.9167,[118.0833 24.4167 119.0833 25.4167],4.925,3.56,7.651,5.997,5.365,3.928,7.399,5.871,151.0,510.0
2015-03-27,Quanzhou,China,118.5833,24.9167,[118.0833 24.4167 119.0833 25.4167],4.479,3.498,6.211,5.268,5.225,3.877,7.043,5.687,145.0,500.0
2015-03-28,Quanzhou,China,118.5833,24.9167,[118.0833 24.4167 119.0833 25.4167],4.342,3.451,6.021,5.008,5.246,3.879,6.986,5.641,163.0,511.0
2015-03-29,Quanzhou,China,118.5833,24.9167,[118.0833 24.4167 119.0833 25.4167],4.463,3.46,6.073,5.105,5.256,3.901,6.893,5.607,180.0,512.0
2015-03-30,Quanzhou,China,118.5833,24.9167,[118.0833 24.4167 119.0833 25.4167],4.451,3.451,6.021,5.046,5.231,3.816,6.859,5.51,186.0,542.0
2015-03-31,Quanzhou,China,118.5833,24.9167,[118.0833 24.4167 119.0833 25.4167],4.451,3.451,6.021,5.046,5.288,3.899,6.827,5.52,186.0,555.0
2015-04-01,Quanzhou,China,118.5833,24.9167,[118.0833 24.4167 119.0833 25.4167],4.451,3.451,6.021,5.046,5.289,3.891,6.793,5.532,186.0,533.0
2015-04-02,Quanzhou,China,118.5833,24.9167,[118.0833 24.4167 119.0833 25.4167],4.451,3.451,6.021,5.046,5.64,4.104,6.99,5.736,186.0,546.0
2015-04-03,Quanzhou,China,118.5833,24.9167,[118.0833 24.4167 119.0833 25.4167],4.451,3.451,6.021,5.046,5.614,4.073,6.971,5.707,186.0,542.0
2015-04-04,Quanzhou,China,118.5833,24.9167,[118.0833 24.4167 119.0833 25.4167],4.172,3.377,5.526,4.691,5.414,3.975,6.899,5.6,170.0,567.0
2015-04-05,Quanzhou,China,118.5833,24.9167,[118.0833 24.4167 119.0833 25.4167],4.172,3.286,5.434,4.57,5.192,3.802,6.622,5.353,154.0,552.0
2015-04-06,Quanzhou,China,118.5833,24.9167,[118.0833 24.4167 119.0833 25.4167],4.123,3.155,5.349,4.378,5.18,3.73,6.589,5.298,153.0,548.0
2015-04-07,Quanzhou,China,118.5833,24.9167,[118.0833 24.4167 119.0833 25.4167],4.036,3.212,5.307,4.343,5.174,3.803,6.594,5.317,176.0,556.0
2015-04-08,Quanzhou,China,118.5833,24.9167,[118.0833 24.4167 119.0833 25.4167],4.286,3.393,5.558,4.701,5.177,3.758,6.558,5.335,201.0,541.0
2015-04-09,Quanzhou,China,118.5833,24.9167,[118.0833 24.4167 119.0833 25.4167],4.52,3.407,6.021,4.983,5.174,3.751,6.662,5.349,174.0,554.0
2015-04-10,Quanzhou,China,118.5833,24.9167,[118.0833 24.4167 119.0833 25.4167],4.52,3.407,6.021,4.983,5.271,3.771,6.739,5.384,174.0,537.0
2015-04-11,Quanzhou,China,118.5833,24.9167,[118.0833 24.4167 119.0833 25.4167],4.693,3.519,6.983,5.339,5.443,3.873,6.784,5.5,148.0,556.0
2015-04-12,Quanzhou,China,118.5833,24.9167,[118.0833 24.4167 119.0833 25.4167],4.923,3.846,7.205,5.624,5.419,3.777,6.804,5.497,117.0,547.0
2015-04-13,Quanzhou,China,118.5833,24.9167,[118.0833 24.4167 119.0833 25.4167],4.757,3.605,7.205,5.519,5.191,3.58,6.646,5.41,99.0,558.0
2015-04-14,Quanzhou,China,118.5833,24.9167,[118.0833 24.4167 119.0833 25.4167],4.923,3.868,7.464,5.711,5.308,3.668,6.751,5.481,93.0,558.0
2015-04-15,Quanzhou,China,118.5833,24.9167,[118.0833 24.4167 119.0833 25.4167],4.832,3.671,7.205,5.544,5.283,3.598,6.691,5.406,106.0,550.0
2015-04-16,Quanzhou,China,118.5833,24.9167,[118.0833 24.4167 119.0833 25.4167],4.832,3.671,7.205,5.544,5.237,3.532,6.658,5.311,106.0,523.0
2015-04-17,Quanzhou,China,118.5833,24.9167,[118.0833 24.4167 119.0833 25.4167],4.832,3.671,7.205,5.544,4.282,3.085,6.039,4.657,106.0,474.0
2015-04-18,Quanzhou,China,118.5833,24.9167,[118.0833 24.4167 119.0833 25.4167],4.832,3.671,7.205,5.544,4.196,3.018,5.832,4.574,106.0,482.0
2015-04-19,Quanzhou,China,118.5833,24.9167,[118.0833 24.4167 119.0833 25.4167],3.871,2.729,5.723,4.452,4.115,2.83,5.617,4.419,128.0,471.0
2015-04-20,Quanzhou,China,118.5833,24.9167,[118.0833 24.4167 119.0833 25.4167],3.868,2.575,5.743,4.396,4.194,2.788,5.603,4.399,149.0,499.0
2015-04-21,Quanzhou,China,118.5833,24.9167,[118.0833 24.4167 119.0833 25.4167],3.838,2.331,5.485,4.312,4.112,2.794,5.578,4.379,128.0,484.0
2015-04-22,Quanzhou,China,118.5833,24.9167,[118.0833 24.4167 119.0833 25.4167],3.637,1.788,5.345,4.189,4.132,2.712,5.599,4.353,126.0,477.0
2015-04-23,Quanzhou,China,118.5833,24.9167,[118.0833 24.4167 119.0833 25.4167],3.31,1.611,4.977,3.625,3.999,2.627,5.485,4.216,127.0,479.0
2015-04-24,Quanzhou,China,118.5833,24.9167,[118.0833 24.4167 119.0833 25.4167],3.31,1.611,4.977,3.625,3.911,2.461,5.395,4.141,127.0,462.0
2015-04-25,Quanzhou,China,118.5833,24.9167,[118.0833 24.4167 119.0833 25.4167],3.31,1.611,4.977,3.625,3.889,2.453,5.476,4.124,127.0,473.0
2015-04-26,Quanzhou,China,118.5833,24.9167,[118.0833 24.4167 119.0833 25.4167],3.402,2.366,4.494,3.598,3.516,2.367,5.034,3.829,146.0,456.0
2015-04-27,Quanzhou,China,118.5833,24.9167,[118.0833 24.4167 119.0833 25.4167],3.402,2.366,4.494,3.598,3.525,2.357,5.026,3.807,146.0,474.0
2015-04-28,Quanzhou,China,118.5833,24.9167,[118.0833 24.4167 119.0833 25.4167],3.402,2.366,4.494,3.598,3.454,2.278,4.931,3.669,146.0,465.0
2015-04-29,Quanzhou,China,118.5833,24.9167,[118.0833 24.4167 119.0833 25.4167],3.402,2.366,4.494,3.593,3.447,2.273,4.871,3.652,156.0,476.0
2015-04-30,Quanzhou,China,118.5833,24.9167,[118.0833 24.4167 119.0833 25.4167],3.31,2.193,4.387,3.488,3.381,2.166,4.777,3.537,153.0,475.0
2015-05-01,Quanzhou,China,118.5833,24.9167,[118.0833 24.4167 119.0833 25.4167],3.31,2.193,4.387,3.488,3.456,2.225,4.806,3.586,153.0,505.0
2015-05-02,Quanzhou,China,118.5833,24.9167,[118.0833 24.4167 119.0833 25.4167],3.31,2.193,4.387,3.488,3.507,2.191,4.903,3.615,153.0,545.0
2015-05-03,Quanzhou,China,118.5833,24.9167,[118.0833 24.4167 119.0833 25.4167],3.31,2.193,4.387,3.488,3.377,2.102,4.796,3.536,153.0,520.0
2015-05-04,Quanzhou,China,118.5833,24.9167,[118.0833 24.4167 119.0833 25.4167],3.642,2.547,5.045,3.982,3.469,2.19,4.858,3.603,131.0,536.0
2015-05-05,Quanzhou,China,118.5833,24.9167,[118.0833 24.4167 119.0833 25.4167],3.642,2.769,4.685,3.878,3.437,2.28,4.758,3.578,129.0,529.0
2015-05-06,Quanzhou,China,118.5833,24.9167,[118.0833 24.4167 119.0833 25.4167],3.642,2.759,4.703,3.869,3.297,2.29,4.612,3.511,156.0,556.0
2015-05-07,Quanzhou,China,118.5833,24.9167,[118.0833 24.4167 119.0833 25.4167],3.559,2.769,4.494,3.758,3.009,2.22,3.971,3.229,134.0,542.0
2015-05-08,Quanzhou,China,118.5833,24.9167,[118.0833 24.4167 119.0833 25.4167],3.402,2.712,4.371,3.569,2.978,2.212,4.01,3.178,135.0,544.0
2015-05-09,Quanzhou,China,118.5833,24.9167,[118.0833 24.4167 119.0833 25.4167],3.415,2.713,4.387,3.602,3.073,2.285,4.151,3.253,149.0,549.0
2015-05-10,Quanzhou,China,118.5833,24.9167,[118.0833 24.4167 119.0833 25.4167],3.415,2.713,4.387,3.602,3.023,2.286,4.075,3.2,149.0,534.0
2015-05-11,Quanzhou,China,118.5833,24.9167,[118.0833 24.4167 119.0833 25.4167],3.511,2.712,4.569,3.627,3.191,2.362,4.229,3.31,130.0,547.0
2015-05-12,Quanzhou,China,118.5833,24.9167,[118.0833 24.4167 119.0833 25.4167],3.511,2.712,4.569,3.627,3.253,2.381,4.266,3.344,130.0,531.0
2015-05-13,Quanzhou,China,118.5833,24.9167,[118.0833 24.4167 119.0833 25.4167],3.511,2.712,4.569,3.627,3.228,2.393,4.216,3.337,130.0,548.0
2015-05-14,Quanzhou,China,118.5833,24.9167,[118.0833 24.4167 119.0833 25.4167],3.587,2.712,4.52,3.635,3.198,2.331,4.233,3.332,120.0,539.0
2015-05-15,Quanzhou,China,118.5833,24.9167,[118.0833 24.4167 119.0833 25.4167],3.739,2.731,4.676,3.678,3.294,2.369,4.275,3.358,110.0,549.0
2015-05-16,Quanzhou,China,118.5833,24.9167,[118.0833 24.4167 119.0833 25.4167],3.739,2.731,4.676,3.678,3.259,2.379,4.319,3.37,110.0,549.0
2015-05-17,Quanzhou,China,118.5833,24.9167,[118.0833 24.4167 119.0833 25.4167],3.739,2.731,4.676,3.678,3.345,2.402,4.353,3.428,110.0,538.0
2015-05-18,Quanzhou,China,118.5833,24.9167,[118.0833 24.4167 119.0833 25.4167],3.739,2.731,4.676,3.678,3.377,2.399,4.335,3.43,110.0,513.0
2015-05-19,Quanzhou,China,118.5833,24.9167,[118.0833 24.4167 119.0833 25.4167],3.739,2.731,4.676,3.678,3.377,2.379,4.311,3.409,110.0,489.0
2015-05-20,Quanzhou,China,118.5833,24.9167,[118.0833 24.4167 119.0833 25.4167],3.692,2.415,4.997,3.584,3.373,2.35,4.427,3.452,80.0,498.0
2015-05-21,Quanzhou,China,118.5833,24.9167,[118.0833 24.4167 119.0833 25.4167],3.739,2.553,4.956,3.634,3.447,2.393,4.569,3.512,47.0,488.0
2015-05-22,Quanzhou,China,118.5833,24.9167,[118.0833 24.4167 119.0833 25.4167],3.093,1.965,4.586,3.33,3.483,2.362,4.562,3.515,71.0,516.0
2015-05-23,Quanzhou,China,118.5833,24.9167,[118.0833 24.4167 119.0833 25.4167],3.241,1.979,4.265,3.346,3.498,2.391,4.541,3.492,48.0,501.0
2015-05-24,Quanzhou,China,118.5833,24.9167,[118.0833 24.4167 119.0833 25.4167],3.236,1.969,4.265,3.227,3.502,2.396,4.535,3.512,40.0,500.0
2015-05-25,Quanzhou,China,118.5833,24.9167,[118.0833 24.4167 119.0833 25.4167],3.236,1.969,3.828,3.131,3.481,2.383,4.532,3.51,52.0,505.0
2015-05-26,Quanzhou,China,118.5833,24.9167,[118.0833 24.4167 119.0833 25.4167],3.125,1.969,3.828,3.094,3.433,2.331,4.435,3.461,55.0,489.0
2015-05-27,Quanzhou,China,118.5833,24.9167,[118.0833 24.4167 119.0833 25.4167],3.125,1.969,3.828,3.094,3.43,2.383,4.356,3.445,55.0,500.0
2015-05-28,Quanzhou,China,118.5833,24.9167,[118.0833 24.4167 119.0833 25.4167],3.125,1.969,3.828,3.094,3.472,2.336,4.391,3.481,55.0,484.0
2015-05-29,Quanzhou,China,118.5833,24.9167,[118.0833 24.4167 119.0833 25.4167],3.125,1.969,3.828,3.094,3.5,2.389,4.342,3.51,55.0,501.0
2015-05-30,Quanzhou,China,118.5833,24.9167,[118.0833 24.4167 119.0833 25.4167],3.125,1.969,3.828,3.094,3.434,2.331,4.365,3.469,55.0,492.0
2015-05-31,Quanzhou,China,118.5833,24.9167,[118.0833 24.4167 119.0833 25.4167],2.634,1.712,3.538,2.757,3.318,2.165,4.207,3.333,86.0,503.0
2015-06-01,Quanzhou,China,118.5833,24.9167,[118.0833 24.4167 119.0833 25.4167],2.73,1.886,3.645,2.89,2.962,2.002,4.064,3.134,95.0,501.0
2015-06-02,Quanzhou,China,118.5833,24.9167,[118.0833 24.4167 119.0833 25.4167],3.028,1.906,3.828,2.881,2.86,2.003,3.986,3.063,110.0,530.0
2015-06-03,Quanzhou,China,118.5833,24.9167,[118.0833 24.4167 119.0833 25.4167],3.183,1.99,3.882,3.069,2.889,2.018,3.991,3.095,126.0,542.0
2015-06-04,Quanzhou,China,118.5833,24.9167,[118.0833 24.4167 119.0833 25.4167],3.145,1.97,4.03,3.018,2.771,1.919,3.817,2.889,141.0,518.0
2015-06-05,Quanzhou,China,118.5833,24.9167,[118.0833 24.4167 119.0833 25.4167],3.145,1.97,4.03,3.018,2.712,1.874,3.745,2.814,141.0,530.0
2015-06-06,Quanzhou,China,118.5833,24.9167,[118.0833 24.4167 119.0833 25.4167],2.968,2.287,3.83,3.009,2.706,1.922,3.704,2.806,136.0,518.0
2015-06-07,Quanzhou,China,118.5833,24.9167,[118.0833 24.4167 119.0833 25.4167],2.939,2.135,3.786,2.954,2.663,1.847,3.554,2.752,162.0,545.0
2015-06-08,Quanzhou,China,118.5833,24.9167,[118.0833 24.4167 119.0833 25.4167],2.936,1.97,3.678,2.822,2.744,1.845,3.619,2.738,174.0,532.0
2015-06-09,Quanzhou,China,118.5833,24.9167,[118.0833 24.4167 119.0833 25.4167],2.936,1.938,3.786,2.824,2.76,1.846,3.642,2.735,190.0,533.0
2015-06-10,Quanzhou,China,118.5833,24.9167,[118.0833 24.4167 119.0833 25.4167],2.945,2.005,3.974,2.965,2.766,1.859,3.703,2.783,217.0,540.0
2015-06-11,Quanzhou,China,118.5833,24.9167,[118.0833 24.4167 119.0833 25.4167],2.98,2.215,4.03,3.077,2.735,1.868,3.668,2.781,240.0,525.0
2015-06-12,Quanzhou,China,118.5833,24.9167,[118.0833 24.4167 119.0833 25.4167],2.98,2.215,4.03,3.077,2.726,1.857,3.667,2.779,240.0,537.0
2015-06-13,Quanzhou,China,118.5833,24.9167,[118.0833 24.4167 119.0833 25.4167],2.949,2.156,3.869,3.025,2.672,1.868,3.706,2.805,259.0,521.0
2015-06-14,Quanzhou,China,118.5833,24.9167,[118.0833 24.4167 119.0833 25.4167],2.949,2.156,3.869,3.025,2.656,1.872,3.584,2.78,259.0,539.0
2015-06-15,Quanzhou,China,118.5833,24.9167,[118.0833 24.4167 119.0833 25.4167],2.947,2.059,3.838,3.001,2.644,1.809,3.523,2.766,238.0,529.0
2015-06-16,Quanzhou,China,118.5833,24.9167,[118.0833 24.4167 119.0833 25.4167],2.94,2.006,3.824,2.964,2.82,1.934,3.68,2.879,234.0,543.0
2015-06-17,Quanzhou,China,118.5833,24.9167,[118.0833 24.4167 119.0833 25.4167],2.939,1.97,3.824,2.955,2.874,1.974,3.728,2.916,221.0,544.0
2015-06-18,Quanzhou,China,118.5833,24.9167,[118.0833 24.4167 119.0833 25.4167],2.938,1.97,3.813,2.923,2.865,1.989,3.722,2.909,219.0,536.0
2015-06-19,Quanzhou,China,118.5833,24.9167,[118.0833 24.4167 119.0833 25.4167],2.936,1.988,3.813,2.931,2.942,2.052,3.804,2.99,204.0,511.0